Location: Izdebno
(52.6670°N, 16.2170°E)
Time: 22:05:33
(UTC+02:00)

Vanguard 2 Rocket - Pass Details

Date: 03 March 2024
Orbit: 555 x 3307 km, 32.9° (Epoch: 21 April)

Event Time Altitude Azimuth Distance (km) Brightness Sun altitude
Rises 11:56:49 0° 199° (SSW) 3,418 10.8 30.8°
Reaches altitude 10° 12:01:08 10° 166° (SSE) 2,948 11.0 30.8°
Maximum altitude 12:03:28 12° 147° (SSE) 3,086 10.7 30.8°
Drops below altitude 10° 12:06:09 10° 129° (SE) 3,524 10.5 30.8°
Sets 12:13:00 0° 103° (ESE) 5,286 10.9 30.8°
